STARLINK-37857, 69429

Orbit data source: Space-Track

STARLINK-37857, 69429 is a payload satellite owned by SpaceX/Seattle (US) in SSO that was launched on Sun, 07 Jun 2026 UTC via an FALCON 9 launch vehicle from the Air Force Western Test Range (AFWTR). Payload-class satellites include a variety of spacecraft equipped with specific instruments for various scientific and technological missions. These include communications satellites like Starlink; space stations such as the ISS; scientific satellites like the Hubble; Earth observation satellites from companies like Planet Labs, Umbra, and HawkEye 360; GPS; miniature CubeSats for education and research; and military/defense satellites.

Not visible in the next 10 days
Identifier
69429, 2026-126K
Orbit
SSO
Country
Flag of USUS
Related business
Manufacturer
SpaceX/Seattle
Mission
Operational spacecraft
Bus & Motor
STARLINK V2MO, Unknown motor
Mass
575 kg wet, ~530 kg dry
Launch date (UTC)
2026-06-07 (2 weeks ago)
Launch vehicle
FALCON 9
Launch site
Air Force Western Test Range (AFWTR)
Object type
Payload
Rocket body
Debris
Shape & HBR
Unknown
Radar Cross Section
RCS unknown

Expand to show TLE details & history
Last TLE update: 17 hours ago

TLE from 17 hours ago
0 STARLINK-37857
1 69429U 26126K   26171.13737284  .00154920  00000-0  82589-3 0  9995
2 69429  97.2820  31.3130 0002630  58.5410 301.6115 15.79981112  3212
Epoch: 2026-06-20T03:17Z
TLE epoch observation values (Epoch: 2026-06-20T03:17:49.013Z)
Latitude
0.00002°
Longitude
73.50246°
Altitude
332.744 km
Speed
7.709 km/s
True Right ascension
02h 05m 15s
True Declination
0° 00' 00"
Sunlit
Object was in daylight at epoch
Visualization orbit readout
Latitude
Unknown
Longitude
Unknown
Altitude
Unknown
Speed
Unknown
Apparent Right ascension
Unknown
Apparent Declination
Unknown
Sunlit
N/A
Visualization observer readout
Local Sidereal Time
07:14:09
Azimuth
Unknown
Elevation
Unknown
Doppler factor
Unknown
Orbital elements
Apogee altitude
329.139 km
Perigee altitude
325.612 km
Semi-major axis
6,705.512 km
Eccentricity
0.00026
Inclination
97.282°
RAAN
31.313°
Arg. of periapsis
58.541°
True anomaly
301.58583°
Mean anomaly
301.6115°
Eccentric anomaly
301.59867°
Mean motion
3.95271 °/min
Orbital period
91.08 mins
BSTAR
0.00082589
Loading maneuver chart data...
Computing Atmospheric mass density...
Loading historical data...
Loading historical data...
Loading historical data...
Loading historical data...
Loading historical data...
Loading historical data...
Loading historical data...

Documentation

Showing up to 5 results
|